Вернуться в каталог

COSMOS 566

АктивенВоенныеLEO
NORAD 6677·PAYLOAD·🇷🇺 Russia

Запущен Jun 8, 1973 с Plesetsk Cosmodrome

Loading…

Ближайшие Пролёты (ближайшие 24 часа)

TLE

СвежийSource: Space-Track

Эпоха: Sep 14, 2026, 21:11 UTC

1 06677U 73037C   26257.88324848 -.00000010  00000-0  39131-4 0  9996
2 06677  74.0163 114.7496 0031745 338.7008  49.7656 12.51705744433698

Отслеживайте COSMOS 566 в реальном времени с AllMySat

Download on the App Store